Regional Weather Roundup
Issued by NWS

Home | Current Version | Previous Version | Graphics & Text | Print | Product List | Glossary On
Versions: 1 2 3 4 5 6 7 8 9 10 11 12 13 14 15 16 17 18 19 20 21 22 23 24 25 26 27 28 29 30 31 32 33 34 35 36 37 38 39 40 41 42 43 44 45 46 47 48 49 50
000
ASUS45 KBOU 240610
RWRCO

WEATHER ROUNDUP FOR COLORADO
NATIONAL WEATHER SERVICE DENVER/BOULDER CO
1200 AM MDT TUE APR 24 2018

NOTE: "FAIR" INDICATES FEW OR NO CLOUDS BELOW 12000 FEET WITH NO
SIGNIFICANT WEATHER AND/OR OBSTRUCTIONS TO VISIBILITY.

COZ001>005-013-030-031-240700-
...NORTHWEST COLORADO...

CITY           SKY/WX    TMP DP  RH WIND       PRES   REMARKS
CRAIG          FAIR      41  33  73 SW13      30.23R
HAYDEN         FAIR      42  32  67 S6        30.23R
MEEKER         FAIR      47  31  53 VRB5      30.21R
RANGELY        FAIR      48  30  49 NE28G37   30.20R
RABBIT EARS PA CLOUDY    32  27  80 W6        30.32R WCI  26
STEAMBOAT SPGS CLOUDY    44  36  73 SE3       30.21R
WALDEN         CLOUDY    34  28  80 N14       30.27S WCI  24
$$

COZ006>008-011-240700-
...WEST CENTRAL VALLEYS...

CITY           SKY/WX    TMP DP  RH WIND       PRES   REMARKS
GRAND JUNCTION FAIR      63  30  28 E3        30.08R
MONTROSE       CLOUDY    60  29  30 N14G24    30.18R
EAGLE          CLOUDY    56  28  34 SE9G17    30.20S
RIFLE          FAIR      57  33  40 S17       30.12F
DELTA          CLOUDY    64  31  29 NW21G30   30.12S
NUCLA          CLOUDY    61  28  29 N5        30.16S
$$

COZ017>023-064>068-240700-
...SOUTHWEST COLORADO...

CITY           SKY/WX    TMP DP  RH WIND       PRES   REMARKS
DURANGO        FAIR      48  12  23 N7        30.13S
CORTEZ         FAIR      51  15  23 NE6       30.10R
PAGOSA SPRINGS FAIR      43  11  27 CALM      30.19S
TELLURIDE      CLOUDY    49  24  36 NE5       30.30S
WOLF CREEK PAS FAIR      36  10  35 W7G16     30.43F
$$

COZ009-010-012-014-032>034-037-058>063-240700-
...CENTRAL COLORADO...

CITY           SKY/WX    TMP DP  RH WIND       PRES   REMARKS
ASPEN          CLOUDY    49  30  48 W8        30.27R
BUENA VISTA    FAIR      47  23  38 NW12      30.19R
COPPER MTN     NOT AVBL
BERTHOUD PASS  CLOUDY    28  18  64 W14       30.39S WCI  17
COTTONWOOD PAS CLOUDY    50  21  32 NW5       30.29S
GUNNISON       FAIR      49  26  41 NW5       30.21S
GRANBY         MOCLDY    40  34  78 NE5       30.24F
KREMMLING      MOCLDY    46  36  66 CALM      30.24R
LEADVILLE      MOCLDY    38  24  57 NE8       30.30R
MONARCH PASS   FAIR      34  19  55 W31G40    30.46F WCI  20
SALIDA         FAIR      52  23  31 SW8       30.25R
SUNLIGHT       CLOUDY    32  27  80 SW18G29   30.35F WCI  20
WILKERSON PASS HVY SNOW  32  30  93 SE9       30.37S VSB<1/4 WCI  24
$$

COZ069>075-240700-
...SAN LUIS VALLEY/SANGRE DE CRISTO MOUNTAINS...

CITY           SKY/WX    TMP DP  RH WIND       PRES   REMARKS
ALAMOSA        FAIR      39  17  41 SE3       30.15S
DEL NORTE      FAIR      44  14  29 W10       30.19S
LA VETA PASS   FAIR      43  18  36 SW13G20   30.40S
SAGUACHE       NOT AVBL
$$

COZ035-036-038>040-240700-
...NORTHERN COLORADO FRONT RANGE...

CITY           SKY/WX    TMP DP  RH WIND       PRES   REMARKS
DENVER INTL AP CLOUDY    40  33  76 N18G29    30.28R
AURORA         NOT AVBL
FRONT RANGE AP CLOUDY    41  36  80 N17G23    30.27R
ERIE MUNI ARPT CLOUDY    42  35  74 N5        30.34R
BOULDER MUN AP CLOUDY    41  34  75 NE9       30.30R
CENTENNIAL     CLOUDY    40  36  86 N13       30.29R
BROOMFIELD     CLOUDY    41  36  81 N8        30.30R
FORT COLLINS   MOCLDY    40  32  73 N21G30    30.26R
LONGMONT       CLOUDY    43  34  70 NE8       30.32R
$$

COZ041-046-047-076>085-087-088-240700-
...PIKES PEAK/PALMER DIVIDE AND SOUTHERN FOOTHILLS...

CITY           SKY/WX    TMP DP  RH WIND       PRES   REMARKS
COLO. SPRINGS  MOCLDY    47  40  76 N29G43    30.17R
A. F. ACADEMY  CLOUDY    46  41  81 N24G31    30.21R
SCHRIEVER AFB  NOT AVBL
CHEYENNE MTN   MOCLDY    46  39  76 NW20G33   30.13R
ELLICOTT         N/A    N/A N/A N/A N32G41    30.15R
FALCON         CLOUDY    41  39  93 N26G36    30.21R
FORT CARSON    MOCLDY    51  42  72 N29G39    30.13R
LIMON          CLOUDY    42  40  92 N29G41    30.17S
MONUMENT HILL  LGT RAIN  36  36 100 N17G25    30.28S VSB 1/2
CANON CITY     FAIR      54  41  62 CALM      30.07S
WALSENBURG     NOT AVBL
TRINIDAD       FAIR      53  29  39 S5        30.05F
$$

COZ042>045-048>051-090-091-240700-
...NORTHEAST COLORADO...

CITY           SKY/WX    TMP DP  RH WIND       PRES   REMARKS
GREELEY ARPT   LGT RAIN  40  32  73 N25G33    30.26R
AKRON          CLOUDY    41  39  93 N26G33    30.20R
BURLINGTON     CLOUDY    54  41  61 E10G40    30.13R
WRAY           DRIZZLE   50  50 100 N15       30.17S
YUMA           CLOUDY    45  43  93 N18G28    30.19R
STERLING       NOT AVBL
HOLYOKE        CLOUDY    46  43  87 N22G32    30.21R
FORT MORGAN    FAIR      39  33  78 N28G37    30.21S
$$

COZ086-089-092>099-240700-
...SOUTHEAST COLORADO...

CITY           SKY/WX    TMP DP  RH WIND       PRES   REMARKS
PUEBLO         FAIR      56  41  57 N16       30.05R
LA JUNTA       FAIR      54  42  64 NE8       30.00R
LAMAR          FAIR      54  43  66 E8        30.01R
SPRINGFIELD      N/A     45  40  82 S5        30.05S
$$




USA.gov is the U.S. government's official web portal to all federal, state and local government web resources and services.